Weather History for Hill City, KS

Change the Weather History Date:

Tuesday, February 12, 2013

  Actual Average Record
Temperature  
Mean Temperature 34 °F 32 °F  
Max Temperature 50 °F 45 °F 80 °F (1962)
Min Temperature 18 °F 19 °F -6 °F (1965)
Degree Days  
Heating Degree Days 32    
Moisture  
Dew Point 14 °F    
Average Humidity 54    
Maximum Humidity 81    
Minimum Humidity 17    
Precipitation  
Precipitation 0.00 in 0.02 in 0.10 in (2005)
Month to date precipitation 0.05 0.22  
Year to date precipitation 0.14 0.67  
Sea Level Pressure  
Sea Level Pressure 30.10 in    
Wind  
Wind Speed 5 mph (WNW)    
Max Wind Speed 15 mph    
Max Gust Speed 21 mph    
Visibility 10 miles    
Events      
T = Trace of Precipitation, MM = Missing Value Source: NWS Daily Summary

Daily Weather History Graph

Daily Weather History Graph

Search for Another Location

Airport:

Trip Planner

Search our weather history database for the weather conditions in past years. The results will help you decide how hot, cold, wet, or windy it might be!

Date:

Astronomy

Feb. 12, 2013 Rise Set
Actual Time 7:34 AM CST 6:13 PM CST
Civil Twilight 7:06 AM CST 6:40 PM CST
Nautical Twilight 6:35 AM CST 7:12 PM CST
Astronomical Twilight 6:04 AM CST 7:43 PM CST
Moon 8:33 AM CST (2/12) 9:14 PM CST (2/12)
Length of Visible Light 11h 33m
Length of Day
10h 38m
Waxing Crescent, 7% of the Moon is Illuminated
Feb 12
Waxing Crescent
Feb 17
First Quarter
Feb 25
Full
Mar 4
Last Quarter
Mar 11
New

Hourly Weather History & Observations

Time (CST) Temp. Windchill Dew Point Humidity Pressure Visibility Wind Dir Wind Speed Gust Speed Precip Events Conditions
12:53 AM 23.0 °F - 17.1 °F 78% 30.18 in 10.0 mi Calm Calm - N/A   Overcast
1:53 AM 23.0 °F 18.4 °F 17.1 °F 78% 30.17 in 10.0 mi WNW 3.5 mph - N/A   Overcast
2:53 AM 23.0 °F - 16.0 °F 74% 30.16 in 10.0 mi Calm Calm - N/A   Partly Cloudy
3:53 AM 23.0 °F 15.8 °F 16.0 °F 74% 30.17 in 10.0 mi WNW 5.8 mph - N/A   Partly Cloudy
4:53 AM 24.1 °F 18.2 °F 16.0 °F 71% 30.15 in 10.0 mi WNW 4.6 mph - N/A   Clear
5:53 AM 21.9 °F - 16.0 °F 78% 30.15 in 10.0 mi Calm Calm - N/A   Scattered Clouds
6:53 AM 19.0 °F 13.9 °F 14.0 °F 81% 30.15 in 10.0 mi WNW 3.5 mph - N/A   Clear
7:53 AM 19.9 °F 13.4 °F 15.1 °F 81% 30.16 in 10.0 mi WSW 4.6 mph - N/A   Clear
8:53 AM 23.0 °F 18.4 °F 17.1 °F 78% 30.16 in 10.0 mi West 3.5 mph - N/A   Clear
9:53 AM 32.0 °F 27.5 °F 19.9 °F 61% 30.14 in 10.0 mi WSW 4.6 mph - N/A   Clear
10:53 AM 37.9 °F 32.7 °F 21.0 °F 51% 30.14 in 10.0 mi SSW 6.9 mph - N/A   Clear
11:53 AM 44.1 °F 40.1 °F 19.0 °F 37% 30.11 in 10.0 mi West 6.9 mph - N/A   Clear
12:53 PM 46.9 °F - 14.0 °F 27% 30.07 in 10.0 mi NNW 10.4 mph - N/A   Clear
1:53 PM 48.0 °F - 10.9 °F 22% 30.04 in 10.0 mi WNW 10.4 mph 20.7 mph N/A   Clear
2:53 PM 48.9 °F - 5.0 °F 17% 30.02 in 10.0 mi WNW 13.8 mph 18.4 mph N/A   Clear
3:53 PM 48.9 °F - 5.0 °F 17% 30.01 in 10.0 mi WNW 11.5 mph 18.4 mph N/A   Clear
4:53 PM 48.0 °F - 6.1 °F 18% 30.01 in 10.0 mi NW 15.0 mph - N/A   Clear
5:53 PM 43.0 °F 38.2 °F 10.0 °F 26% 30.03 in 10.0 mi NW 8.1 mph - N/A   Clear
6:53 PM 30.0 °F 24.1 °F 10.0 °F 43% 30.05 in 10.0 mi NW 5.8 mph - N/A   Clear
7:53 PM 30.9 °F 26.2 °F 12.9 °F 47% 30.06 in 10.0 mi NW 4.6 mph - N/A   Clear
8:53 PM 30.0 °F 25.2 °F 15.1 °F 54% 30.06 in 10.0 mi NW 4.6 mph - N/A   Clear
9:53 PM 27.0 °F 20.5 °F 15.1 °F 61% 30.06 in 10.0 mi West 5.8 mph - N/A   Clear
10:53 PM 28.0 °F 20.0 °F 16.0 °F 61% 30.04 in 10.0 mi WNW 8.1 mph - N/A   Clear
11:53 PM 26.1 °F 17.6 °F 16.0 °F 66% 30.03 in 10.0 mi West 8.1 mph - N/A   Clear